星链-35571(STARLINK-35571)

导读 | 豆包AI

STARLINK-35571是美国SpaceX星链星座的成员,于2025年10月19日发射,归属星链互联网星座组网,主要为全球提供低延迟、高速率的卫星互联网接入服务。该星遵循Star链星座部署计划,运行在近地轨道,是Starlink大规模卫星组网进程中的一颗低轨通信卫星,进一步完善星链的全球覆盖能力。

Basic Information
目录编号:
66089
目录名称:
STARLINK-35571
国际标识:
2025-236D
轨道中心:
EARTH
卫星名称:
星链-35571
卫星全名:
星链-35571(STARLINK-35571)
卫星状态:
在轨 (已飞行218 天)
发射日期:
2025-10-19 UTC
国别 :
美国 (US)
星等 :
--
Orbit Information
数据来源 国际轨道数据 AOE轨道数据
星历时间 2026-05-25T11:46:10+0800
9小时前
查看轨道信息
2026-05-18T23:00:00+0800
6天前
查看轨道信息
半长轴 6853.334km 6853.424km
偏心率 0.000144 0.0001368
轨道倾角 53.161° 53.157°
近地点辐角 92.536° 66.311°
升交点赤经 108.577° 138.921°
平近点角 267.581° 290.551°
近地点 474.21km 474.349km
远地点 476.184km 476.225km
周期 94.105分钟 94.107分钟
每日圈数 15.302062 15.301762
Detailed Information
固有亮度:
5
最大亮度:
2.5
卫星平台:
Starlink V1.0
覆盖范围:
全球
运营商:
太空探索技术公司
运营商所在国:
美国
制造商(研发单位):
太空探索技术公司
制造商所在国:
美国
使用方式:
暂无
Satellite Introduction
Starlink 计划是 SpaceX 推出的全球卫星互联网项目,通过发射低轨道卫星,为全球尤其是偏远地区提供高速、低延迟的互联网服务。自 2019 年起,Starlink 已部署数千颗卫星,旨在缩小全球数字鸿沟,推动互联网普及。该项目还为军事、航空等行业提供通信支持,带来广泛经济效益。
2D Orbit Map
3D Orbit Map
Orbit Altitude Analysis Chart
Orbit Inclination Analysis Chart
Orbit Comprehensive Analysis Chart
View Comprehensive Chart